TimeCST,TemperatureF,Dew PointF,Humidity,Sea Level PressureIn,VisibilityMPH,Wind Direction,Wind SpeedMPH,Gust SpeedMPH,PrecipitationIn,Events,Conditions,WindDirDegrees,DateUTC
12:52 AM,71.1,66.0,84,29.78,9.0,South,18.4,-,N/A,,Overcast,170,2014-02-02 06:52:00
1:34 AM,71.6,66.2,83,29.78,9.0,South,13.8,-,N/A,,Overcast,170,2014-02-02 07:34:00
1:52 AM,71.1,66.0,84,29.78,9.0,South,12.7,-,N/A,,Overcast,170,2014-02-02 07:52:00
2:52 AM,71.1,64.9,81,29.76,9.0,SSE,13.8,-,N/A,,Overcast,160,2014-02-02 08:52:00
3:52 AM,71.1,66.0,84,29.74,8.0,South,17.3,-,N/A,,Overcast,170,2014-02-02 09:52:00
4:17 AM,71.6,64.4,78,29.74,9.0,SSE,12.7,21.9,N/A,,Overcast,160,2014-02-02 10:17:00
4:52 AM,71.1,64.9,81,29.74,9.0,SSE,15.0,-,N/A,,Overcast,160,2014-02-02 10:52:00
5:25 AM,69.8,64.4,83,29.74,9.0,SSE,13.8,-,N/A,,Mostly Cloudy,150,2014-02-02 11:25:00
5:52 AM,69.1,64.0,84,29.75,9.0,SSE,12.7,-,N/A,,Mostly Cloudy,160,2014-02-02 11:52:00
6:52 AM,69.1,64.9,87,29.76,9.0,SSE,12.7,-,N/A,,Overcast,160,2014-02-02 12:52:00
7:52 AM,70.0,64.9,84,29.76,8.0,SSE,13.8,-,N/A,,Overcast,160,2014-02-02 13:52:00
8:52 AM,71.1,64.9,81,29.78,9.0,South,17.3,23.0,N/A,,Overcast,180,2014-02-02 14:52:00
9:52 AM,72.0,66.0,81,29.83,9.0,South,13.8,-,N/A,,Overcast,190,2014-02-02 15:52:00
10:52 AM,73.0,64.9,76,29.85,9.0,SSW,16.1,21.9,N/A,,Overcast,200,2014-02-02 16:52:00
11:52 AM,75.0,64.9,71,29.83,9.0,South,20.7,-,N/A,,Overcast,190,2014-02-02 17:52:00
12:52 PM,75.0,66.0,73,29.83,10.0,SW,9.2,-,N/A,,Overcast,220,2014-02-02 18:52:00
1:25 PM,75.2,66.2,73,29.83,10.0,West,5.8,-,N/A,,Overcast,280,2014-02-02 19:25:00
1:52 PM,75.9,64.9,69,29.83,10.0,West,11.5,-,N/A,,Overcast,270,2014-02-02 19:52:00
2:52 PM,77.0,64.0,64,29.83,10.0,NW,8.1,-,N/A,,Partly Cloudy,320,2014-02-02 20:52:00
3:52 PM,62.1,52.0,70,29.90,10.0,North,27.6,35.7,0.00,,Overcast,350,2014-02-02 21:52:00
4:01 PM,60.8,50.0,68,29.91,10.0,North,29.9,36.8,N/A,,Overcast,350,2014-02-02 22:01:00
4:49 PM,53.6,46.4,77,29.95,10.0,NNW,21.9,32.2,N/A,,Overcast,340,2014-02-02 22:49:00
4:52 PM,54.0,46.0,75,29.96,10.0,North,24.2,32.2,N/A,,Overcast,350,2014-02-02 22:52:00
5:14 PM,51.8,44.6,76,29.98,10.0,North,19.6,28.8,N/A,,Overcast,360,2014-02-02 23:14:00
5:52 PM,50.0,43.0,77,30.01,10.0,North,25.3,31.1,N/A,,Overcast,350,2014-02-02 23:52:00
6:52 PM,48.9,42.1,77,30.04,10.0,North,19.6,23.0,N/A,,Overcast,360,2014-02-03 00:52:00
7:52 PM,48.9,39.9,71,30.08,10.0,North,15.0,23.0,N/A,,Overcast,350,2014-02-03 01:52:00
8:52 PM,48.9,39.9,71,30.11,10.0,North,17.3,21.9,N/A,,Overcast,350,2014-02-03 02:52:00
9:52 PM,48.9,39.9,71,30.13,10.0,North,17.3,-,N/A,,Overcast,350,2014-02-03 03:52:00
10:52 PM,48.9,39.0,69,30.15,10.0,NNW,13.8,-,N/A,,Overcast,340,2014-02-03 04:52:00
11:52 PM,48.9,39.0,69,30.16,10.0,North,13.8,-,N/A,,Overcast,350,2014-02-03 05:52:00